CW7220 Weather Reports


time (UTC)temp
C
wind
direction
speed
KPH
gust
KPH
rain 1hr
cm
rain 24hr
cm
rain mn
cm
humidity
%
barometer
mb
20260504191933 18 217 9.7 0.0 0.00 0.00 0.00 86 1011.7
20260504190926 18 211 9.7 0.0 0.00 0.00 0.00 86 1011.6
20260504185919 18 215 11.3 0.0 0.00 0.00 0.00 86 1011.5
20260504184936 18 232 9.7 0.0 0.00 0.00 0.00 86 1011.4
20260504183929 18 212 11.3 0.0 0.00 0.00 0.00 85 1011.3
20260504182921 18 184 12.9 0.0 0.00 0.00 0.00 86 1011.3
20260504181917 18 227 14.5 0.0 0.00 0.00 0.00 86 1011.2
20260504180928 18 204 16.1 0.0 0.00 0.00 0.00 85 1011.2
20260504175918 19 222 14.5 0.0 0.00 0.00 0.00 85 1011.2
20260504174931 19 213 17.7 0.0 0.00 0.00 0.00 85 1011.2
20260504172922 19 219 16.1 0.0 0.00 0.00 0.00 85 1011.3
20260504171933 20 232 16.1 0.0 0.00 0.00 0.00 84 1011.3
20260504170925 20 223 19.3 0.0 0.00 0.00 0.00 84 1011.3
20260504081918 18 154 6.4 0.0 0.00 0.00 0.00 91 1013.2
20260504080932 18 177 4.8 0.0 0.00 0.00 0.00 91 1013.2
20260504045922 17 261 0.0 0.0 0.00 0.00 0.00 90 1012.5
20260504044934 17 261 0.0 0.0 0.00 0.00 0.00 90 1012.3
20260504043931 17 261 0.0 0.0 0.00 0.00 0.00 90 1012.2
20260504042925 17 261 0.0 0.0 0.00 0.00 0.00 90 1012.2
20260504041918 17 261 0.0 0.0 0.00 0.00 0.00 89 1012.2
20260504040929 17 261 0.0 0.0 0.00 0.00 0.00 89 1012.3
20260504035924 17 261 0.0 0.0 0.00 0.00 0.00 89 1012.4
20260504034936 17 261 0.0 0.0 0.00 0.00 0.00 89 1012.4
20260504032922 17 261 1.6 0.0 0.00 0.00 0.00 89 1012.8
20260504031920 18 260 0.0 0.0 0.00 0.00 0.00 89 1012.9
20260504030918 17 260 0.0 0.0 0.00 0.00 0.00 89 1013.0
20260504024936 18 260 0.0 0.0 0.00 0.00 0.00 89 1013.3
20260504023926 18 260 0.0 0.0 0.00 0.00 0.00 89 1013.2
20260504021932 18 260 0.0 0.0 0.00 0.00 0.00 89 1013.2
20260504020923 18 260 0.0 0.0 0.00 0.00 0.00 89 1013.2
20260504014923 18 260 0.0 0.0 0.00 0.00 0.00 88 1013.5
20260504013918 18 260 0.0 0.0 0.00 0.00 0.00 88 1013.5
20260504010935 18 261 0.0 0.0 0.00 0.00 0.00 88 1013.1
20260504005929 18 260 0.0 0.0 0.00 0.00 0.00 88 1013.1
20260504004921 18 260 0.0 0.0 0.00 0.00 0.00 88 1013.0
20260504003933 18 260 0.0 0.0 0.00 0.00 0.00 88 1013.0
20260504001920 18 260 1.6 0.0 0.00 0.00 0.00 88 1013.4
20260504000932 18 260 3.2 0.0 0.00 0.00 0.00 88 1013.5
20260503235922 18 260 3.2 0.0 0.00 0.00 0.33 88 1013.6
20260503234919 18 260 3.2 0.0 0.00 0.00 0.33 87 1013.8
20260503233931 18 256 0.0 0.0 0.00 0.00 0.33 87 1013.9
20260503232923 18 256 0.0 0.0 0.00 0.00 0.33 87 1014.0
20260503231933 18 256 1.6 0.0 0.00 0.00 0.33 87 1014.2
20260503230929 18 256 3.2 0.0 0.00 0.00 0.33 87 1014.3
20260503225919 18 254 4.8 0.0 0.00 0.00 0.33 87 1014.3
20260503222922 18 246 4.8 0.0 0.00 0.00 0.33 89 1014.3
20260503221933 18 225 4.8 0.0 0.00 0.00 0.33 89 1014.3
20260503220926 18 163 4.8 0.0 0.00 0.00 0.33 89 1014.1
20260503214931 18 97 0.0 0.0 0.00 0.00 0.33 90 1013.9
20260503213921 18 97 0.0 0.0 0.00 0.00 0.33 90 1013.8
20260503212933 18 97 0.0 0.0 0.00 0.00 0.33 90 1013.8
20260503211927 18 97 0.0 0.0 0.00 0.00 0.33 90 1013.7
20260503210917 18 97 0.0 0.0 0.00 0.00 0.33 90 1013.7
20260503205928 18 97 0.0 0.0 0.00 0.00 0.33 90 1013.6
20260503203915 18 97 0.0 0.0 0.00 0.00 0.33 90 1013.6
20260503202926 18 97 0.0 0.0 0.00 0.00 0.33 90 1013.6
20260503201937 18 97 0.0 0.0 0.00 0.00 0.33 90 1013.4
20260503195921 18 97 1.6 0.0 0.00 0.00 0.33 90 1013.3
20260503194933 18 97 0.0 0.0 0.00 0.00 0.33 90 1013.3
20260503193925 18 97 1.6 0.0 0.00 0.00 0.33 90 1013.1